Weather History for Sandpoint, ID

Change the Weather History Date:

Saturday, January 5, 2013

  Actual Average Record
Temperature  
Mean Temperature 29 °F -  
Max Temperature 32 °F 30 °F - (-1)
Min Temperature 26 °F 18 °F - (-1)
Degree Days  
Heating Degree Days 36    
Moisture  
Dew Point 26 °F    
Average Humidity 86    
Maximum Humidity 100    
Minimum Humidity 75    
Precipitation  
Precipitation 0.00 in - - ()
Sea Level Pressure  
Sea Level Pressure 30.28 in    
Wind  
Wind Speed 8 mph (NNE)    
Max Wind Speed 18 mph    
Max Gust Speed 23 mph    
Visibility 10 miles    
Events Snow    
Averages and records for this station are not official NWS values.
T = Trace of Precipitation, MM = Missing Value Source: NWS Daily Summary

Daily Weather History Graph

Daily Weather History Graph

Search for Another Location

Airport:

Trip Planner

Search our weather history database for the weather conditions in past years. The results will help you decide how hot, cold, wet, or windy it might be!

Date:

Astronomy

Jan. 05, 2013 Rise Set
Actual Time 7:36 AM PST 4:07 PM PST
Civil Twilight 7:00 AM PST 4:43 PM PST
Nautical Twilight 6:21 AM PST 5:22 PM PST
Astronomical Twilight 5:43 AM PST 6:00 PM PST
Moon 12:31 AM PST (1/5) 11:13 AM PST (1/5)
Length of Visible Light 9h 42m
Length of Day
8h 30m
Last Quarter, 43% of the Moon is Illuminated
Jan 5
Last Quarter
Jan 11
New
Jan 18
First Quarter
Jan 26
Full
Feb 3
Last Quarter

Hourly Weather History & Observations

Time (PST) Temp. Windchill Dew Point Humidity Pressure Visibility Wind Dir Wind Speed Gust Speed Precip Events Conditions
12:15 AM 28.4 °F 24.6 °F 26.6 °F 93% 30.37 in 10.0 mi NNE 3.5 mph - N/A   Overcast
12:35 AM 28.4 °F 23.3 °F 26.6 °F 93% 30.37 in 10.0 mi NNE 4.6 mph - N/A   Overcast
12:55 AM 28.4 °F 23.3 °F 24.8 °F 86% 30.37 in 10.0 mi ENE 4.6 mph - N/A   Overcast
1:15 AM 28.4 °F 24.6 °F 24.8 °F 86% 30.37 in 10.0 mi North 3.5 mph - N/A   Overcast
1:35 AM 28.4 °F 20.4 °F 24.8 °F 86% 30.37 in 10.0 mi NNE 8.1 mph - N/A   Overcast
1:55 AM 28.4 °F 21.2 °F 24.8 °F 86% 30.37 in 10.0 mi NNE 6.9 mph - N/A   Overcast
2:15 AM 28.4 °F 20.4 °F 24.8 °F 86% 30.38 in 10.0 mi NE 8.1 mph - N/A   Overcast
2:35 AM 28.4 °F 22.2 °F 24.8 °F 86% 30.38 in 10.0 mi NE 5.8 mph - N/A   Overcast
2:55 AM 28.4 °F 22.2 °F 24.8 °F 86% 30.38 in 10.0 mi NNE 5.8 mph - N/A   Overcast
3:15 AM 28.4 °F 22.2 °F 24.8 °F 86% 30.37 in 10.0 mi NE 5.8 mph - N/A   Overcast
3:35 AM 28.4 °F 21.2 °F 24.8 °F 86% 30.37 in 10.0 mi NNE 6.9 mph - N/A   Overcast
3:55 AM 28.4 °F 18.5 °F 26.6 °F 93% 30.37 in 10.0 mi NNE 11.5 mph - N/A   Overcast
4:15 AM 28.4 °F 18.5 °F 24.8 °F 86% 30.37 in 10.0 mi NNE 11.5 mph - N/A   Overcast
4:35 AM 28.4 °F 18.5 °F 26.6 °F 93% 30.37 in 10.0 mi NE 11.5 mph - N/A   Overcast
4:55 AM 28.4 °F 18.0 °F 26.6 °F 93% 30.36 in 10.0 mi NE 12.7 mph - N/A   Overcast
5:15 AM 28.4 °F 18.0 °F 26.6 °F 93% 30.36 in 10.0 mi NE 12.7 mph - N/A   Overcast
5:35 AM 28.4 °F 18.0 °F 26.6 °F 93% 30.36 in 10.0 mi NNE 12.7 mph - N/A   Overcast
5:55 AM 28.4 °F 18.0 °F 26.6 °F 93% 30.36 in 10.0 mi NNE 12.7 mph - N/A   Overcast
6:15 AM 28.4 °F 18.0 °F 26.6 °F 93% 30.36 in 10.0 mi NNE 12.7 mph - N/A   Overcast
6:35 AM 28.4 °F 18.5 °F 26.6 °F 93% 30.35 in 10.0 mi NNE 11.5 mph - N/A   Overcast
6:55 AM 28.4 °F 19.1 °F 24.8 °F 86% 30.36 in 10.0 mi NNE 10.4 mph - N/A   Overcast
7:15 AM 28.4 °F 18.0 °F 24.8 °F 86% 30.35 in 10.0 mi NNE 12.7 mph - N/A   Overcast
7:55 AM 28.4 °F 18.0 °F 24.8 °F 86% 30.35 in 10.0 mi NNE 12.7 mph - N/A   Overcast
8:15 AM 28.4 °F 17.5 °F 24.8 °F 86% 30.35 in 10.0 mi NNE 13.8 mph 18.4 mph N/A   Overcast
8:55 AM 28.4 °F 17.5 °F 24.8 °F 86% 30.35 in 10.0 mi NE 13.8 mph 23.0 mph N/A   Overcast
9:15 AM 28.4 °F 17.5 °F 24.8 °F 86% 30.34 in 10.0 mi NNE 13.8 mph 18.4 mph N/A   Overcast
9:35 AM 30.2 °F 19.3 °F 24.8 °F 80% 30.34 in 10.0 mi NNE 15.0 mph 18.4 mph N/A   Overcast
9:55 AM 30.2 °F 20.2 °F 24.8 °F 80% 30.34 in 10.0 mi NNE 12.7 mph 16.1 mph N/A   Overcast
10:15 AM 30.2 °F 19.8 °F 24.8 °F 80% 30.33 in 10.0 mi NNE 13.8 mph - N/A   Overcast
10:35 AM 30.2 °F 20.8 °F 24.8 °F 80% 30.33 in 10.0 mi NNE 11.5 mph - N/A   Overcast
10:55 AM 30.2 °F 18.1 °F 24.8 °F 80% 30.31 in 10.0 mi NNE 18.4 mph - N/A   Overcast
11:15 AM 32.0 °F 21.2 °F 24.8 °F 75% 30.30 in 10.0 mi NNE 16.1 mph - N/A   Overcast
11:35 AM 32.0 °F 21.2 °F 26.6 °F 80% 30.29 in 10.0 mi NNE 16.1 mph - N/A   Overcast
11:55 AM 32.0 °F 22.5 °F 26.6 °F 80% 30.28 in 10.0 mi NNE 12.7 mph - N/A   Overcast
12:15 PM 32.0 °F 22.5 °F 26.6 °F 80% 30.28 in 10.0 mi NNE 12.7 mph 20.7 mph N/A   Overcast
12:35 PM 32.0 °F 22.5 °F 26.6 °F 80% 30.27 in 10.0 mi NE 12.7 mph 17.3 mph N/A   Mostly Cloudy
12:55 PM 32.0 °F 22.1 °F 26.6 °F 80% 30.26 in 10.0 mi NE 13.8 mph - N/A   Mostly Cloudy
1:15 PM 32.0 °F 22.5 °F 26.6 °F 80% 30.26 in 10.0 mi NE 12.7 mph - N/A   Overcast
1:35 PM 32.0 °F 23.6 °F 26.6 °F 80% 30.26 in 10.0 mi NNE 10.4 mph - N/A   Scattered Clouds
1:55 PM 32.0 °F 23.6 °F 26.6 °F 80% 30.26 in 10.0 mi NNE 10.4 mph - N/A   Clear
2:15 PM 32.0 °F 22.5 °F 26.6 °F 80% 30.25 in 10.0 mi NNE 12.7 mph - N/A   Clear
2:35 PM 32.0 °F 21.6 °F 26.6 °F 80% 30.25 in 10.0 mi NNE 15.0 mph - N/A   Clear
2:55 PM 32.0 °F 22.5 °F 26.6 °F 80% 30.25 in 10.0 mi NNE 12.7 mph - N/A   Clear
3:15 PM 32.0 °F 23.0 °F 26.6 °F 80% 30.24 in 10.0 mi NNE 11.5 mph - N/A   Scattered Clouds
3:35 PM 32.0 °F 22.1 °F 26.6 °F 80% 30.24 in 10.0 mi NNE 13.8 mph 17.3 mph N/A   Mostly Cloudy
3:55 PM 32.0 °F 22.5 °F 26.6 °F 80% 30.23 in 10.0 mi NNE 12.7 mph - N/A   Scattered Clouds
4:15 PM 30.2 °F 21.3 °F 24.8 °F 80% 30.23 in 10.0 mi NNE 10.4 mph - N/A   Clear
4:35 PM 30.2 °F 25.4 °F 26.6 °F 86% 30.23 in 10.0 mi North 4.6 mph - N/A   Clear
4:55 PM 30.2 °F 24.3 °F 26.6 °F 86% 30.23 in 10.0 mi NNE 5.8 mph - N/A   Mostly Cloudy
5:15 PM 30.2 °F 25.4 °F 24.8 °F 80% 30.22 in 10.0 mi NE 4.6 mph - N/A   Scattered Clouds
5:55 PM 30.2 °F 25.4 °F 24.8 °F 80% 30.21 in 10.0 mi North 4.6 mph - N/A   Clear
6:15 PM 30.2 °F - 24.8 °F 80% 30.21 in 10.0 mi Calm Calm - N/A   Scattered Clouds
6:35 PM 28.4 °F 22.2 °F 24.8 °F 86% 30.20 in 10.0 mi NNE 5.8 mph - N/A   Scattered Clouds
6:55 PM 28.4 °F - 24.8 °F 86% 30.19 in 10.0 mi Calm Calm - N/A   Clear
7:15 PM 28.4 °F - 24.8 °F 86% 30.18 in 10.0 mi Calm Calm - N/A   Clear
7:35 PM 26.6 °F - 23.0 °F 86% 30.17 in 10.0 mi Calm Calm - N/A   Clear
7:55 PM 26.6 °F - 24.8 °F 93% 30.17 in 10.0 mi Calm Calm - N/A   Mostly Cloudy
8:15 PM 26.6 °F - 24.8 °F 93% 30.17 in 10.0 mi Calm Calm - N/A   Overcast
8:35 PM 26.6 °F 22.6 °F 26.6 °F 100% 30.17 in 10.0 mi WSW 3.5 mph - N/A   Overcast
8:55 PM 28.4 °F 23.3 °F 26.6 °F 93% 30.17 in 10.0 mi South 4.6 mph - N/A   Overcast
9:15 PM 30.2 °F 26.7 °F 26.6 °F 86% 30.17 in 10.0 mi SSW 3.5 mph - N/A   Overcast
9:35 PM 30.2 °F - 26.6 °F 86% 30.17 in 10.0 mi Calm Calm - N/A   Overcast
9:55 PM 30.2 °F 24.3 °F 26.6 °F 86% 30.17 in 7.0 mi SW 5.8 mph - N/A   Overcast
10:15 PM 30.2 °F 26.7 °F 28.4 °F 93% 30.17 in 4.0 mi SSW 3.5 mph - N/A Snow Light Snow
10:35 PM 28.4 °F - 28.4 °F 100% 30.17 in 3.0 mi Calm Calm - N/A   Overcast
10:55 PM 28.4 °F - 28.4 °F 100% 30.16 in 10.0 mi Calm Calm - N/A Snow Light Snow
11:15 PM 28.4 °F 24.6 °F 28.4 °F 100% 30.16 in 10.0 mi SSW 3.5 mph - N/A Snow Light Snow
11:35 PM 28.4 °F 24.6 °F 28.4 °F 100% 30.16 in 4.0 mi SSW 3.5 mph - N/A Snow Light Snow
11:55 PM 30.2 °F 26.7 °F 30.2 °F 100% 30.15 in 7.0 mi South 3.5 mph - N/A Snow Light Snow